Regional Weather Roundup
Issued by NWS Wakefield, VA

Home | Current Version | Previous Version | Text Only | Print | Product List | Glossary On
Versions: 1 2 3 4 5 6 7 8 9 10 11 12 13 14 15 16 17 18 19 20 21 22 23 24 25 26 27 28 29 30 31 32 33 34 35 36 37 38 39 40 41 42 43 44 45 46 47 48 49 50
000
ASUS41 KAKQ 051015
RWRAKQ

REGIONAL WEATHER ROUNDUP
NATIONAL WEATHER SERVICE WAKEFIELD VA
600 AM EDT SAT SEP 05 2015

Note: "fair" indicates few or no clouds below 12,000 feet with no
significant weather and/or obstructions to visibility. * = Denotes
station may not report precipitation (e.g., rain,snow,etc.),
thunder or fog.

VAZ042-051-052>054-056-051100-
NORTHERN VIRGINIA

CITY           SKY/WX    TMP DP  RH WIND       PRES   REMARKS
WASH NATIONAL  CLOUDY    74  69  85 NE9       30.19R
DULLES         MOCLDY    71  68  90 NE5       30.19R
FORT BELVOIR   PTCLDY    71  68  90 CALM      30.18R
QUANTICO       CLEAR     74  69  85 NE12      30.18R
FREDERICKSBRG* MOCLDY    72  72 100 NE6       30.16R
STAFFORD*      MOCLDY    71  68  90 NE6       30.21R FOG
WARRENTON      CLOUDY    71  71 100 N3        30.19R FOG
CULPEPER*      PTCLDY    68  68  99 CALM      30.19R FOG
MANASSAS*      PTCLDY    70  70 100 N3        30.19R
LEESBURG*      CLOUDY    72  72 100 CALM      30.21R
WINCHESTER     CLOUDY    72  70  94 CALM      30.20R
FRONT ROYAL*   PTSUNNY   70  68  94 CALM      30.18R
LURAY*         PTSUNNY   66  66 100 CALM      30.19R FOG
$$

VAZ048-049-060>072-079>083-051100-
CENTRAL AND SOUTH CENTRAL VIRGINIA

CITY           SKY/WX    TMP DP  RH WIND       PRES   REMARKS
RICHMOND       PTCLDY    72  70  93 N6        30.14R FOG
CHESTERFIELD*  CLOUDY    73  61  64 N6        30.16R
PETERSBURG*    MOCLDY    73  73 100 N7        30.14R FOG
HANOVER        PTCLDY    70  69  97 CALM      30.17R FOG
TAPPAHANNOCK*  CLEAR     73  69  88 CALM      30.15R
QUINTON*       FAIR      71  70  99 N3        30.13R FOG
CHARLOTTSVILLE CLOUDY    72  69  90 NE6       30.18R FOG
GORDONSVILLE*  CLOUDY    71  71  99 NE3       30.17R FOG
ORANGE*        CLOUDY    72  70  94 CALM      30.19R FOG
LOUISA*        CLOUDY    72  70  94 NE5       30.16R FOG
BUMPASS*       FAIR      69  69  99 CALM      30.17R
FARMVILLE*     PTCLDY    68  68 100 N3        30.15R FOG
CREWE*         PTSUNNY  N/A N/A N/A CALM      30.14R
FORT PICKETT*  CLOUDY    69  68  98 N7        30.14R
CHASE CITY*    FAIR      71  71 100 NE6       30.14R
CLARKSVILLE*   PTSUNNY   68  68 100 NE3       30.13R
SOUTH HILL*    CLOUDY    69  68  99 N5        30.19R
LAWRENCEVILLE* CLOUDY    70  70 100 CALM      30.13R
EMPORIA*         N/A     70  70 100 N6        30.13R FOG
$$

VAZ088>098-051100-
SOUTHEAST VIRGINIA

CITY           SKY/WX    TMP DP  RH WIND       PRES   REMARKS
NORFOLK        LGT RAIN  79  71  76 NE18      30.08R
VIRGINIA BEACH MOCLDY    82  72  71 NE14      30.07R
NORFOLK NAVAL  MOCLDY    78  71  79 NE9       30.10R
WEST POINT*    PTCLDY    75  72  90 N3        30.14R
SALUDA*        CLOUDY    75  73  91 NE8       30.13R
NEWPORT NEWS   MOCLDY    76  72  87 NE6       30.11R
LANGLEY AFB    PTCLDY    76  72  89 NE15      30.09R
FORT EUSTIS    PTCLDY    75  75 100 VRB5      30.09R
WILLIAMSBURG*  CLEAR     75  73  94 NE3       30.12R
HR EXEC AP*      N/A     73  70  88 NE6       30.11R
FRANKLIN*      CLEAR     70  70  99 CALM      30.10S FOG
WAKEFIELD      MOCLDY    72  70  93 N3        30.11R FOG
$$

VAZ020-022-025-037-045-051100-
WEST CENTRAL AND SOUTHWEST VIRGINIA

CITY           SKY/WX    TMP DP  RH WIND       PRES   REMARKS
STAUNTON*      MOCLDY    66  64  94 CALM      30.23R FOG
WAYNESBORO*    CLOUDY    68  66  94 CALM      30.22R
HOT SPRINGS VA FOG       65  65 100 CALM      30.29R VSB<1/4
LYNCHBURG      MOCLDY    68  67  96 N3        30.19R
DANVILLE       CLEAR     67  65  93 N3        30.15R
SOUTH BOSTON*    N/A     64  63  95 CALM      30.15R VSB 1/2
MARTINSVILLE   PTCLDY    65  65 100 CALM      30.20R FOG
ROANOKE        CLOUDY    68  67  96 CALM      30.21R FOG
BLACKSBURG     PTCLDY    62  62 100 CALM      30.25S FOG
DUBLIN*          N/A     64  64 100 CALM      30.24S FOG
MARION*        CLOUDY    64  62  94 CALM      30.26R FOG
HILLSVILLE*    CLOUDY    62  62 100 CALM      30.23R FOG
RICHLANDS*     FAIR      67  33  28 SE9       30.21R
WISE*          CLEAR     64  55  72 S3        30.21S
ABINGDON*      CLEAR     67  61  83 E7        30.18S
$$

MDZ021>025-VAZ099-100-051100-
SOUTHERN MARYLAND AND THE DELMARVA PENINSULA

CITY           SKY/WX    TMP DP  RH WIND       PRES   REMARKS
PATUXENT RIVER CLOUDY    73  69  87 NE12      30.16R
BAY BRIDGE APT   N/A     72  68  88 NE6       30.19R
LEONARDTOWN    NOT AVBL
DOVER          PTCLDY    71  70  95 NE9       30.18R
GEORGETOWN     PTCLDY    73  67  81 NE10      30.18R
EASTON         CLOUDY    72  72 100 NE6       30.21
CAMBRIDGE      CLOUDY    72  68  88 NE7       30.16R
SALISBURY      CLOUDY    73  70  90 NE13      30.15R
OCEAN CITY     MOCLDY    76  67  73 E14       30.15R
WALLOPS ISLAND CLOUDY    77  71  82 E15G25    30.14R
ACCOMACK*      CLOUDY    73  57  56 NE15      30.11R
$$

NCZ012>017-030>032-051100-
NORTH CENTRAL AND EASTERN NORTH CAROLINA

CITY           SKY/WX    TMP DP  RH WIND       PRES   REMARKS
ROANOKE RAPIDS FAIR      68  68 100 N5        30.11R FOG
RALEIGH        PTCLDY    69  67  93 NE5       30.11S FOG
ELIZABETH CITY PTCLDY    75  72  90 N8        30.07R
AHOSKIE*       PTCLDY    69  68  96 N3        30.10R FOG
EDENTON*       CLEAR     68  67  96 N5        30.07R FOG
CURRITUCK*     MOCLDY    78  69  73 NE10      30.07R
KILL DEVIL HLS MOCLDY    78  73  84 NE6       30.03R
MANTEO         MOCLDY    77  73  86 NE8       30.05R
CAPE HATTERAS  MOCLDY    78  70  76 NE8       30.02R
TARBORO*       FAIR      69  68  96 N3        30.10R FOG
GOLDSBORO      CLEAR     71  70  98 N6        30.06R
WASHINGTON     CLEAR     71  70  95 N6        30.06S
GREENVILLE     CLEAR     70  70 100 N6        30.09R FOG
NEW BERN       MOCLDY    74  71  91 NE6       30.06R
WILMINGTON     PTCLDY    72  70  93 NE8       30.03S FOG
$$

VAZ048-051100-
ELSEWHERE

CITY           SKY/WX    TMP DP  RH WIND       PRES   REMARKS
HARRISBURG PA  CLOUDY    72  65  78 E10       30.22R
BALTIMORE      CLOUDY    73  67  81 E12       30.19R
ANNAPOLIS      CLOUDY    73  69  87 NE9       30.18R
ANDREWS AFB    MOCLDY    72  68  89 NE7       30.18R
PHILADELPHIA   CLOUDY    72  63  73 E9        30.23R
HENDERSON NC   CLOUDY    68  66  94 N5        30.13R FOG
GREENSBORO     MOCLDY    68  66  94 NE6       30.15R FOG
ROCKY MOUNT    CLEAR     71  69  93 N6        30.09R FOG
$$

VAZ100-051100-
MARINE

STATION/POSITION TIME  TEMP    WIND        PRES    WAVE   SWELL
                       AIR SEA DIR/SP/G            HT/PER HT/PER
                 (UTC) (F)     (DEG/KT/KT) (MB)    (FT/S) (FT/S)
BRANDYWINE LGT   0900   74 76   70/ 18/ 20 1021.7R
CAPE MAY NJ      0900   74 80   60/  5/  9 1021.3R
LEWES DE         0900   75 77   70/ 15/ 18 1021.3R
15NM E FENWICK I 0950   77 79   50/ 19/ 21 1020.7R   7/ 7
OCEAN-CITY-INLET 0900   77 78   80/ 11/ 17 1019.7R
GOOSES REEF MD   1000      80                N/A
COVE POINT MD    0900   74      60/ 13/ 15 1021.6R
SOLOMONS ISLAND  0900      82                N/A
BISHOPS HEAD MD  0900   74 80   40/ 14/ 16 1019.5R
PINEY POINT MD   0905           60/  7/ 10   N/A
POTOMAC MD       1000   76 81   60/ 16/ 19 1019.5R   1/ 3
CAMBRIDGE MD     0900   73 82   20/  9/ 10 1020.1R
LEWISETTA VA     0900   76 81   60/ 12/ 17 1019.7R
RAPPAHANNOCK LGT 0900           20/ 18/ 21 1019.5R
STINGRAY PT      0900   78 80   40/ 16/ 17 1019.4S   2/ 3
YORK RVR RNG VA  0900   78      50/ 18/ 21 1018.2R
YORKTOWN VA      0900   77 81   40/ 12/ 15 1018.6R
JAMESTOWN VA     1000   75 83   10/  4/  6   N/A
DOMINION TERM VA 0900   77      40/  4/  5 1018.6R
KIPTOPEKE VA     0900      80   40/  6/ 11   N/A
CHES BAY BRIDGE  0900   79 79   20/ 18/ 21 1017.8R
CAPE HENRY VA    0900   78      40/ 18/ 22   N/A
CHESAPEAKE LGHT  0900   78      50/ 20/ 22 1018.4R
WILLOUBY STN VA  0900   79      50/ 17/ 20 1019.5R
CAPE HENRY BUOY  0928      80                N/A     5/ 5
1ST LANDING BUOY 1000      78              1018.5R   3/ 4
CAPE CHARLES BUO 0926      80                N/A     4/ 6   2/10
OFFSHORE WE BUOY 0911      80                N/A     5/ 6   2/ 9
64NM E OF VA BCH 0950   80 80   50/ 21/ 25 1016.4R   5/ 6
DUCK PIER NC     0900   79 80   40/ 16/ 18 1016.5R
44100 DUCK FRF   0924      79                N/A     4/ 6
44056 DUCK FRF   0911      80                N/A     4/ 6
OREGON INLET NC  0900   78 81   30/ 12/ 16 1016.6S
HATTERAS NC      0900   79 83   40/ 13/ 17 1015.9R
DIAMOND SHLS NC  0950   80 84   40/ 17/ 21 1015.8R   4/ 5   2/11
CAPE LOOKOUT NC  1000   80      30/ 19/ 22 1016.2R
$$



USA.gov is the U.S. government's official web portal to all federal, state and local government web resources and services.